Regional Weather Roundup
Issued by NWS

Home | Current Version | Previous Version | Graphics & Text | Print | Product List | Glossary On
Versions: 1 2 3 4 5 6 7 8 9 10 11 12 13 14 15 16 17 18 19 20 21 22 23 24 25 26 27 28 29 30 31 32 33 34 35 36 37 38 39 40 41 42 43 44 45 46 47 48 49 50
000
ASUS43 KLSX 211810
RWRMO

WEATHER SUMMARY FOR MISSOURI
NATIONAL WEATHER SERVICE SPRINGFIELD MO
100 PM CDT MON MAY 21 2018

NOTE: "FAIR" INDICATES FEW OR NO CLOUDS BELOW 12,000 FEET WITH NO
       SIGNIFICANT WEATHER AND/OR OBSTRUCTIONS TO VISIBILITY.
       CURRENT SKY AND/OR WEATHER CONDITIONS ARE NOT AVAILABLE FOR
       CHILLICOTHE AND FARMINGTON.

MOZ001>031-035>038-043-044-053-054-211900-
...NORTHERN AND WESTERN MISSOURI...

CITY           SKY/WX    TMP DP  RH WIND       PRES   REMARKS
KANSAS CTY INT CLOUDY    62  57  83 W8        30.08S
6HR MIN TEMP:  59; 6HR MAX TEMP:  63;

KANSAS C DTWN  CLOUDY    65  57  75 W10       30.07F
6HR MIN TEMP:  62; 6HR MAX TEMP:  65;

LEE`S SUMMIT   MOSUNNY   68  59  73 SW10      30.07F
6HR MIN TEMP:  62; 6HR MAX TEMP:  69;

ST JOSEPH      CLOUDY    66  59  78 SW9       30.07S
6HR MIN TEMP:  59; 6HR MAX TEMP:  66;

CHILLICOTHE      N/A     72  62  71 VRB6      30.04F
6HR MIN TEMP:  64; 6HR MAX TEMP:  72;

KIRKSVILLE     CLOUDY    73  65  75 W8        30.04S
6HR MIN TEMP:  65; 6HR MAX TEMP:  73;


$$
MOZ066>068-077>081-088>096-101>105-211900-
...SOUTHWEST MISSOURI...

CITY           SKY/WX    TMP DP  RH WIND       PRES   REMARKS
SPRINGFIELD    MOSUNNY   78  64  61 W8        30.07S
6HR MIN TEMP:  68; 6HR MAX TEMP:  78; 6HR PCP: TRACE;

JOPLIN         PTSUNNY   75  65  70 VRB6      30.09F
6HR MIN TEMP:  63; 6HR MAX TEMP:  75;

BRANSON        PTSUNNY   79  68  69 SW6       30.08F

$$
MOZ032>034-039>042-045>050-055>058-069>072-211900-
...CENTRAL MISSOURI...

CITY           SKY/WX    TMP DP  RH WIND       PRES   REMARKS
COLUMBIA       CLOUDY    75  66  73 W10       30.04F
6HR MIN TEMP:  65; 6HR MAX TEMP:  76;

JEFFERSON CITY CLOUDY    75  66  73 W12       30.04F
6HR MIN TEMP:  66; 6HR MAX TEMP:  75;

ROLLA          CLOUDY    74  66  76 SW12      30.06F
6HR MIN TEMP:  64; 6HR MAX TEMP:  74;

SEDALIA        CLOUDY    70  66  87 MISG      30.07S
6HR MIN TEMP:  66; 6HR MAX TEMP:  71;

WHITEMAN AFB   PTSUNNY   69  63  81 SW12      30.03S
WARRENSBURG    CLOUDY    70  61  73 SW9       30.06S
OSAGE BEACH    PTSUNNY   76  68  76 W8        30.05F

$$
MOZ051-052-059>065-211900-
...EAST CENTRAL MISSOURI...

CITY           SKY/WX    TMP DP  RH WIND       PRES   REMARKS
ST LOUIS INTL  CLOUDY    76  68  76 SW7       30.05F
6HR MIN TEMP:  66; 6HR MAX TEMP:  76; 6HR PCP:  0.02;

SPIRIT OF STL  CLOUDY    75  69  81 SW5       30.03F
6HR MIN TEMP:  65; 6HR MAX TEMP:  75; 6HR PCP:  0.07;

ST CHARLES     CLOUDY    75  69  81 S5        30.03F
6HR MIN TEMP:  66; 6HR MAX TEMP:  75; 6HR PCP:  0.01;


$$
MOZ072>076-082>087-097>100-106>115-211900-
...SOUTH CENTRAL AND SOUTHEAST MISSOURI...

CITY           SKY/WX    TMP DP  RH WIND       PRES   REMARKS
CAPE GIRARDEAU FAIR      78  67  68 S10       30.07F
6HR MIN TEMP:  69; 6HR MAX TEMP:  78; 6HR PCP:  0.01;

FARMINGTON     MOSUNNY   79  70  73 SE9       30.06F
6HR MIN TEMP:  66; 6HR MAX TEMP:  78; 6HR PCP: TRACE;

POPLAR BLUFF   CLOUDY    76  70  82 S8        30.06F
6HR MIN TEMP:  69; 6HR MAX TEMP:  77; 6HR PCP: TRACE;

WEST PLAINS    MOSUNNY   77  69  76 W9        30.08F
6HR MIN TEMP:  66; 6HR MAX TEMP:  77;


$$




USA.gov is the U.S. government's official web portal to all federal, state and local government web resources and services.